GPS BIIF-11

Last updated on Wed Jun 24 2026 00:02:56 GMT+0000 (Coordinated Universal Time)

1 41019U 15062A 26172.76431048 -.00000097 00000+0 00000+0 0 9995 2 41019 56.9625 30.6347 0112041 231.0642 127.9776 2.00567065 77925
UTC large
Height (km)
Speed (km/s)
/
Latitude / Longitude
Inclination (degrees)
Orbital Period (minutes)
Azimuth
Elevation
Range (km)
Doppler Factor

Next 0 passes for location: London (51.5072 / 0.1276)

No passes found over London.
GPS BIIF-11